User: anonymous   Login
Location: Unspecified
(0.0000°N, 0.0000°E)
Time: 02:56:28
(UTC+00:00)
Language:

STARLINK-30157 - Orbit

View from above orbital plane
View from above orbital plane
View from above satellite
View from above satellite

Ground track
Ground track

The orbit is defined by the following mean orbital elements,

1 57512U          26145.37051054 +.00000000 +00000-0 +38556-4 0 00007
2 57512  43.0031 277.2267 0002271 284.5205  75.5394 15.27576031    04
Epoch (UTC): 25 May 2026 08:53:32
Eccentricity: 0.0002271
inclination: 43.0031°
perigee height: 482 km
apogee height: 485 km
right ascension of ascending node: 277.2267°
argument of perigee: 284.5205°
revolutions per day: 15.27576031
mean anomaly at epoch: 75.5394°

The dashed part of the orbit path shows where the satellite is in the earth's shadow,  

DLR